TimePDT,TemperatureF,Dew PointF,Humidity,Sea Level PressureIn,VisibilityMPH,Wind Direction,Wind SpeedMPH,Gust SpeedMPH,PrecipitationIn,Events,Conditions,WindDirDegrees,DateUTC
12:15 AM,50.0,50.0,100,30.05,5.0,Calm,Calm,-,N/A,,Overcast,0,2014-04-14 07:15:00
12:35 AM,48.2,48.2,100,30.05,5.0,NNW,3.5,-,N/A,,Overcast,330,2014-04-14 07:35:00
12:55 AM,50.0,50.0,100,30.05,4.0,Calm,Calm,-,N/A,,Overcast,0,2014-04-14 07:55:00
1:15 AM,50.0,50.0,100,30.05,0.5,Calm,Calm,-,N/A,,Overcast,0,2014-04-14 08:15:00
1:35 AM,48.2,48.2,100,30.06,0.2,Calm,Calm,-,N/A,,Overcast,0,2014-04-14 08:35:00
1:55 AM,48.2,48.2,100,30.05,0.2,Calm,Calm,-,N/A,,Overcast,0,2014-04-14 08:55:00
2:15 AM,48.2,48.2,100,30.04,0.2,Calm,Calm,-,N/A,,Overcast,0,2014-04-14 09:15:00
2:35 AM,48.2,48.2,100,30.04,0.2,Calm,Calm,-,N/A,,Overcast,0,2014-04-14 09:35:00
2:55 AM,48.2,48.2,100,30.04,0.5,Calm,Calm,-,N/A,,Overcast,0,2014-04-14 09:55:00
3:15 AM,48.2,48.2,100,30.04,0.2,NW,3.5,-,N/A,,Overcast,310,2014-04-14 10:15:00
3:35 AM,48.2,48.2,100,30.05,0.2,NNW,3.5,-,N/A,,Overcast,340,2014-04-14 10:35:00
3:55 AM,48.2,48.2,100,30.05,0.2,North,4.6,-,N/A,,Overcast,350,2014-04-14 10:55:00
4:15 AM,48.2,48.2,100,30.05,0.2,NW,3.5,-,N/A,,Overcast,320,2014-04-14 11:15:00
4:35 AM,48.2,48.2,100,30.05,0.2,Calm,Calm,-,N/A,,Overcast,0,2014-04-14 11:35:00
4:55 AM,48.2,48.2,100,30.06,0.2,Calm,Calm,-,N/A,,Overcast,0,2014-04-14 11:55:00
5:15 AM,48.2,48.2,100,30.07,0.2,Calm,Calm,-,N/A,,Overcast,0,2014-04-14 12:15:00
5:35 AM,48.2,48.2,100,30.06,0.2,Calm,Calm,-,N/A,,Overcast,0,2014-04-14 12:35:00
5:55 AM,48.2,48.2,100,30.07,0.2,Calm,Calm,-,N/A,,Overcast,0,2014-04-14 12:55:00
6:15 AM,48.2,48.2,100,30.07,0.2,Calm,Calm,-,N/A,,Overcast,0,2014-04-14 13:15:00
6:35 AM,48.2,48.2,100,30.08,0.2,North,3.5,-,N/A,,Overcast,350,2014-04-14 13:35:00
6:55 AM,48.2,48.2,100,30.09,0.2,Calm,Calm,-,N/A,,Overcast,0,2014-04-14 13:55:00
7:15 AM,48.2,48.2,100,30.10,0.2,WSW,3.5,-,N/A,,Overcast,240,2014-04-14 14:15:00
7:35 AM,48.2,48.2,100,30.11,0.8,Calm,Calm,-,N/A,,Overcast,0,2014-04-14 14:35:00
7:55 AM,48.2,48.2,100,30.11,1.0,NNW,3.5,-,N/A,,Overcast,340,2014-04-14 14:55:00
8:15 AM,48.2,48.2,100,30.12,0.8,Calm,Calm,-,N/A,,Overcast,0,2014-04-14 15:15:00
8:35 AM,50.0,50.0,100,30.12,1.2,West,3.5,-,N/A,,Overcast,280,2014-04-14 15:35:00
8:55 AM,50.0,50.0,100,30.12,1.2,North,3.5,-,N/A,,Overcast,10,2014-04-14 15:55:00
9:15 AM,50.0,50.0,100,30.12,1.8,NNW,3.5,-,N/A,,Overcast,330,2014-04-14 16:15:00
9:35 AM,50.0,50.0,100,30.12,3.0,Calm,Calm,-,N/A,,Overcast,0,2014-04-14 16:35:00
9:55 AM,50.0,50.0,100,30.13,5.0,North,3.5,-,N/A,,Overcast,10,2014-04-14 16:55:00
10:15 AM,50.0,50.0,100,30.13,7.0,Calm,Calm,-,N/A,,Overcast,0,2014-04-14 17:15:00
10:35 AM,50.0,50.0,100,30.13,10.0,Calm,Calm,-,N/A,,Overcast,0,2014-04-14 17:35:00
10:55 AM,51.8,51.8,100,30.14,10.0,Calm,Calm,-,N/A,,Overcast,0,2014-04-14 17:55:00
11:15 AM,53.6,53.6,100,30.14,10.0,Calm,Calm,-,N/A,,Mostly Cloudy,0,2014-04-14 18:15:00
11:35 AM,55.4,55.4,100,30.14,10.0,Calm,Calm,-,N/A,,Partly Cloudy,0,2014-04-14 18:35:00
11:55 AM,59.0,57.2,94,30.13,10.0,SSE,3.5,-,N/A,,Clear,150,2014-04-14 18:55:00
12:15 PM,59.0,57.2,94,30.12,10.0,East,4.6,-,N/A,,Clear,80,2014-04-14 19:15:00
12:35 PM,60.8,57.2,88,30.12,10.0,ENE,3.5,-,N/A,,Clear,70,2014-04-14 19:35:00
12:55 PM,64.4,55.4,73,30.12,10.0,ENE,3.5,-,N/A,,Clear,70,2014-04-14 19:55:00
1:15 PM,64.4,57.2,77,30.12,10.0,ENE,3.5,-,N/A,,Clear,60,2014-04-14 20:15:00
1:35 PM,66.2,55.4,68,30.11,10.0,North,3.5,-,N/A,,Clear,10,2014-04-14 20:35:00
1:55 PM,68.0,57.2,68,30.11,10.0,North,3.5,-,N/A,,Clear,10,2014-04-14 20:55:00
2:15 PM,69.8,57.2,64,30.10,10.0,WNW,4.6,-,N/A,,Clear,300,2014-04-14 21:15:00
2:35 PM,69.8,62.6,78,30.10,10.0,NW,5.8,-,N/A,,Clear,320,2014-04-14 21:35:00
2:55 PM,69.8,60.8,73,30.10,10.0,West,10.4,-,N/A,,Clear,280,2014-04-14 21:55:00
3:15 PM,68.0,60.8,78,30.10,10.0,NW,6.9,-,N/A,,Clear,320,2014-04-14 22:15:00
3:35 PM,68.0,59.0,73,30.09,10.0,WNW,8.1,-,N/A,,Clear,300,2014-04-14 22:35:00
3:55 PM,66.2,59.0,78,30.09,10.0,NW,6.9,-,N/A,,Clear,310,2014-04-14 22:55:00
4:15 PM,66.2,57.2,73,30.08,10.0,WNW,11.5,-,N/A,,Clear,290,2014-04-14 23:15:00
4:35 PM,64.4,57.2,77,30.08,10.0,WNW,11.5,-,N/A,,Clear,300,2014-04-14 23:35:00
4:55 PM,62.6,55.4,77,30.08,10.0,WNW,11.5,-,N/A,,Clear,290,2014-04-14 23:55:00
5:15 PM,60.8,53.6,77,30.09,10.0,WNW,10.4,17.3,N/A,,Clear,300,2014-04-15 00:15:00
5:35 PM,59.0,53.6,82,30.08,10.0,WNW,9.2,-,N/A,,Clear,300,2014-04-15 00:35:00
5:55 PM,59.0,53.6,82,30.08,10.0,NW,6.9,-,N/A,,Clear,320,2014-04-15 00:55:00
6:15 PM,59.0,53.6,82,30.07,10.0,WNW,9.2,-,N/A,,Clear,300,2014-04-15 01:15:00
6:35 PM,59.0,53.6,82,30.07,10.0,NW,6.9,-,N/A,,Clear,320,2014-04-15 01:35:00
6:55 PM,57.2,53.6,88,30.07,10.0,NW,4.6,-,N/A,,Clear,320,2014-04-15 01:55:00
7:15 PM,55.4,53.6,94,30.07,10.0,WNW,8.1,-,N/A,,Clear,300,2014-04-15 02:15:00
7:35 PM,53.6,53.6,100,30.07,9.0,NW,6.9,-,N/A,,Clear,310,2014-04-15 02:35:00
7:55 PM,51.8,51.8,100,30.07,8.0,NW,6.9,-,N/A,,Mostly Cloudy,310,2014-04-15 02:55:00
8:15 PM,51.8,51.8,100,30.08,10.0,WNW,8.1,-,N/A,,Overcast,300,2014-04-15 03:15:00
8:35 PM,51.8,51.8,100,30.09,8.0,WNW,5.8,-,N/A,,Overcast,300,2014-04-15 03:35:00
9:15 PM,51.8,51.8,100,30.10,4.0,NW,6.9,-,N/A,,Overcast,310,2014-04-15 04:15:00
9:35 PM,50.0,50.0,100,30.10,5.0,WNW,9.2,-,N/A,,Overcast,290,2014-04-15 04:35:00
10:15 PM,50.0,50.0,100,30.10,8.0,NW,5.8,-,N/A,,Overcast,310,2014-04-15 05:15:00
10:35 PM,50.0,50.0,100,30.10,8.0,NW,4.6,-,N/A,,Overcast,310,2014-04-15 05:35:00
10:55 PM,50.0,50.0,100,30.09,7.0,NW,6.9,-,N/A,,Overcast,320,2014-04-15 05:55:00
11:15 PM,50.0,50.0,100,30.09,7.0,NW,6.9,-,N/A,,Overcast,310,2014-04-15 06:15:00
11:35 PM,50.0,50.0,100,30.09,3.0,NW,5.8,-,N/A,,Overcast,320,2014-04-15 06:35:00
11:55 PM,50.0,50.0,100,30.09,5.0,NW,5.8,-,N/A,,Overcast,310,2014-04-15 06:55:00